Location: �couen
(49.0206°N, 2.3831°E)
Time: 15:02:40
(UTC+00:00)

FENGYUN 1C DEB - Pass Details

Date: 04 April 2023
Orbit: 840 x 948 km, 98.8° (Epoch: 28 May)

Event Time Altitude Azimuth Distance (km) Brightness Sun altitude
Rises 20:17:44 0° 190° (S) 3,576 ? -17.9°
Reaches altitude 10° 20:20:25 10° 200° (SSW) 2,624 ? -18.3°
Maximum altitude 20:25:43 35° 264° (W) 1,446 ? -19.0°
Drops below altitude 10° 20:30:56 10° 329° (NNW) 2,577 ? -19.7°
Sets 20:33:33 0° 339° (NNW) 3,504 ? -20.0°
